Location: Unspecified
(0.0000°N, 0.0000°E)
Time: 13:28:29
(UTC+02:00)

BREEZE-M DEB (TANK) - Visible Passes

Search period start: 31 July 2014 00:00
Search period end: 10 August 2014 00:00
Orbit: 342 x 16417 km, 49.5° (Epoch: 30 July)

Date Brightness Start Highest point End Pass type
(mag) Time Alt. Az. Time Alt. Az. Time Alt. Az.
31 Jul 8.8 00:21:20 10° SSW 02:18:35 73° W 03:57:18 10° NNE visible
31 Jul 8.2 19:58:09 10° S 21:48:44 26° E 23:10:02 10° ENE visible
01 Aug 8.7 01:14:44 10° SW 03:06:19 56° W 04:46:12 10° NNE visible
01 Aug 8.4 20:44:47 10° S 22:38:56 42° E 00:12:04 10° NE visible
02 Aug 8.6 02:11:33 10° SW 03:53:39 39° W 05:34:00 10° N visible
02 Aug 8.5 21:33:14 10° SSW 23:28:26 58° E 01:07:27 10° NE visible
03 Aug 8.5 03:16:31 10° WSW 04:41:19 24° W 06:19:20 10° NNW visible
03 Aug 8.7 22:22:40 10° SSW 00:17:32 76° E 01:59:53 10° NNE visible
04 Aug 8.8 23:13:03 10° SSW 01:06:16 86° W 02:50:39 10° NNE visible
05 Aug 8.0 19:00:03 10° SSE 20:37:50 16° E 21:40:31 10° ENE visible
06 Aug 8.8 00:04:43 10° SW 01:54:36 68° W 03:40:18 10° NNE visible
06 Aug 8.2 19:40:28 10° S 21:27:53 31° E 22:56:43 10° NE visible
07 Aug 8.6 00:58:31 10° SW 02:42:39 51° W 04:28:59 10° N visible
07 Aug 8.4 20:27:29 10° S 22:16:40 46° E 23:56:20 10° NE visible
08 Aug 8.5 01:56:26 10° SW 03:30:48 35° W 05:16:25 10° N visible
08 Aug 8.5 21:15:57 10° SSW 23:05:04 63° E 00:50:48 10° NE visible
09 Aug 8.4 03:05:31 10° WSW 04:19:46 20° W 06:00:08 10° NNW visible
09 Aug 8.7 22:05:21 10° SSW 23:53:26 81° E 00:00:00 81° ENE visible
